Location: Bakov nad Jizerou
(50.4784°N, 14.9394°E)
Time: 17:37:04
(UTC+00:00)

Cosmos 2322 - Pass Details

Date: 28 October 2021
Orbit: 841 x 854 km, 71.0° (Epoch: 04 December)

Event Time Altitude Azimuth Distance (km) Brightness Sun altitude
Exits shadow 03:00:41 43° 335° (NNW) 1,186 4.3 -26.5°
Maximum altitude 03:02:41 86° 61° (ENE) 857 3.6 -26.2°
Drops below altitude 10° 03:08:22 10° 151° (SSE) 2,463 6.3 -25.3°
Sets 03:10:48 0° 151° (SSE) 3,393 7.1 -24.9°
